Zurück zum Katalog

QIANFAN-111

AktivKommunikationPO
NORAD 68638·PAYLOAD·🇨🇳 China

Gestartet Apr 7, 2026 von Wenchang Space Launch Site

Loading…

Nächste Überflüge (nächste 24 Stunden)

TLE

AktuellSource: Space-Track

Epoche: Sep 14, 2026, 14:33 UTC

1 68638U 26075C   26257.60633736  .00000061  00000-0  76247-4 0  9994
2 68638  88.9873 311.8704 0002259  98.2093 261.9315 13.51020888 21881

Verfolge QIANFAN-111 in Echtzeit mit AllMySat

Download on the App Store